Voltar ao catálogo

STARLINK-33899

AtivoComunicaçõesVLEO
NORAD 63799·PAYLOAD·🇺🇸 United States

Lançado May 2, 2025 de Cape Canaveral Space Force Station

Loading…

Próximas Passagens (próximas 24 horas)

TLE

AtualizadoSource: CelesTrak SupGP

Época: Sep 15, 2026, 03:42 UTC

1 63799C 25091AA  26258.15465278 -.00029560  00000+0 -10705-2 0  2588
2 63799  43.0045  62.4583 0001751 267.7606 290.9201 15.27598241    16

Acompanhe STARLINK-33899 em tempo real com AllMySat

Download on the App Store